EJA823 KPWK-KTEB

Flight info

Callsign EJA823
Flight time N/A
Altitude 41000
Route DUFEE LOGGR HAAKK DOXXY SOSIC JHW LVZ5
Aircraft C700/M-SBDGHM1RWXY/LB2

Departure

Time 2026-05-06 18:01
Airport Chicago Executive Airport (KPWK)

Arrival

Time N/A
Airport Teterboro Airport (KTEB)
Time Latitude Longitude Altitude Speed Heading
2026-05-06 17:55 42.11670 -87.90090 641 ft 0 kts 70°
2026-05-06 17:58 42.11693 -87.90068 641 ft 8 kts
2026-05-06 17:58 42.11733 -87.90098 641 ft 4 kts 280°
2026-05-06 17:58 42.11711 -87.90174 637 ft 9 kts 250°
2026-05-06 17:58 42.11655 -87.90198 637 ft 12 kts 156°
2026-05-06 17:59 42.11555 -87.90145 637 ft 18 kts 159°
2026-05-06 17:59 42.11432 -87.90081 637 ft 20 kts 158°
2026-05-06 17:59 42.11292 -87.90007 635 ft 24 kts 158°
2026-05-06 17:59 42.11164 -87.89939 636 ft 13 kts 158°
2026-05-06 18:00 42.11100 -87.89927 636 ft 8 kts 224°
2026-05-06 18:00 42.11071 -87.90013 633 ft 11 kts 254°
2026-05-06 18:00 42.11150 -87.90092 633 ft 27 kts 338°
2026-05-06 18:00 42.11593 -87.90324 636 ft 112 kts 339°
2026-05-06 18:01 42.12498 -87.90775 1057 ft 158 kts 335°
2026-05-06 18:01 42.13599 -87.91312 2106 ft 165 kts 335°
2026-05-06 18:01 42.14755 -87.91888 3258 ft 190 kts 334°
2026-05-06 18:01 42.16088 -87.92514 4327 ft 219 kts 347°
2026-05-06 18:02 42.17695 -87.92236 5480 ft 255 kts 22°
2026-05-06 18:02 42.19024 -87.90503 6740 ft 280 kts 61°
2026-05-06 18:02 42.19369 -87.87925 8374 ft 286 kts 96°
2026-05-06 18:02 42.18881 -87.85303 10003 ft 293 kts 110°
2026-05-06 18:03 42.18248 -87.82566 11256 ft 320 kts 107°
2026-05-06 18:03 42.17841 -87.79482 12360 ft 351 kts 98°
2026-05-06 18:03 42.17633 -87.76064 13450 ft 379 kts 96°